Miscellaneous Local Product
Issued by NWS North Platte, NE

Home | Current Version | Previous Version | Text Only | Print | Product List | Glossary On
Versions: 1 2 3 4 5 6 7 8 9 10 11 12 13 14 15 16 17 18 19 20 21 22 23 24 25 26 27 28 29 30 31 32 33 34 35 36 37 38 39 40 41 42 43 44 45 46 47 48 49 50
000
AXUS43 KLBF 240410
MISLBF


WESTERN AND NORTH CENTRAL NEBRASKA HOURLY WEATHER ROUNDUP
NATIONAL WEATHER SERVICE NORTH PLATTE NE
1100 PM CDT MON APR 23 2018

NOTE: "FAIR" INDICATES FEW OR NO CLOUDS BELOW 12,000 FEET WITH NO
SIGNIFICANT WEATHER AND/OR OBSTRUCTIONS TO VISIBILITY.

NOTE: STATIONS NOT REPORTING VARIABLES SUCH AS SKY/WEATHER OR
PRESSURE ARE PROVIDED BY RAWS AND APRS NETWORKS AND ARE NOT UNDER
NATIONAL WEATHER SERVICE QUALITY CONTROL.

...OBSERVATIONS IN AND NEAR THE EASTERN PANHANDLE OF NEBRASKA...

CITY           SKY/WX    TMP DP  RH WIND       PRES   REMARKS
PINE RIDGE     CLOUDY    41  38  89 W12       30.18R
GORDON         LGT RAIN  41  38  89 NW9       30.15F
CHADRON        MOCLDY    38  34  85 W20G30    30.23R WCI  28
ALLIANCE       LGT RAIN  41  39  93 NW14      30.21R
SIDNEY         LGT RAIN  43  41  93 N18G29    30.19R
CRESCENT LAKE    N/A     43  41  93 N12G33      N/A
$$

...OBSERVATIONS IN NORTHERN NEBRASKA AND FAR SOUTHERN SOUTH DAKOTA...

CITY           SKY/WX    TMP DP  RH WIND       PRES   REMARKS
WINNER         CLOUDY    58  41  53 SE13      30.08S
VALENTINE      MOCLDY    60  40  47 SE13      30.07S
AINSWORTH      CLOUDY    55  42  60 SE8       30.10S
O`NEILL        CLOUDY    59  39  46 SE5       30.11S
THEDFORD       PTCLDY    50  41  71 SE6       30.11R
BROKEN BOW     CLOUDY    48  41  76 CALM      30.11R
ORD            CLEAR     44  36  73 CALM      30.10R
ALBION         CLOUDY    57  42  57 CALM      30.10S
VALENTINE NWR    N/A     51  41  68 SE5         N/A
HALSEY           N/A     54  39  56 SE5         N/A
BUTTE            N/A     56  41  56 SE6         N/A
CHAMBERS         N/A     52  36  55 CALM        N/A
EWING            N/A     57  38  50 CALM        N/A
$$

...OBSERVATIONS IN SOUTHWEST NEBRASKA AND FAR NORTHEAST COLORADO...

CITY           SKY/WX    TMP DP  RH WIND       PRES   REMARKS
WRAY           MOCLDY    55  41  58 SE18      30.02F
HOLYOKE        MOCLDY    55  43  62 W3        30.11R
IMPERIAL       CLOUDY    51  42  71 E5        30.09R
OGALLALA       CLOUDY    55  42  62 E3        30.11R
NORTH PLATTE   CLEAR     47  39  74 SE3       30.10R
MCCOOK         CLEAR     52  40  63 SE8       30.07R
LEXINGTON      CLEAR     51  39  63 CALM      30.09R
STAPLETON        N/A     50  40  68 CALM        N/A
GOTHENBURG       N/A     54  38  55 CALM        N/A
CALLAWAY         N/A     55  42  62 SE3         N/A
$$

...OBSERVATIONS IN CENTRAL LINCOLN COUNTY AREA...

CITY           SKY/WX    TMP DP  RH WIND       PRES   REMARKS
N.P. AIRPORT   CLEAR     47  39  74 SE3       30.10R
N.P. DOWNTOWN    N/A     54  42  65 CALM        N/A
N.P. SOUTHEAST   N/A     52  41  67 CALM        N/A
N.P. HILLCREST   N/A     54  42  62 E8          N/A
$$

...OBSERVATIONS ACROSS THE ROCKIES AND WESTERN HIGH PLAINS...

CITY           SKY/WX    TMP DP  RH WIND       PRES   REMARKS
RAPID CITY     CLOUDY    39  33  79 NW38G51   30.19R WCI  26
SCOTTSBLUFF    CLOUDY    41  41 100 NW22G30   30.26R
CHEYENNE       CLOUDY    34  31  88 MISG      30.24R
DENVER         MOCLDY    46  41  82 N32G40    30.17R
BERTHOUD PASS  MOCLDY    27  16  63 NW5       30.40R WCI  21
MONARCH PASS   PTCLDY    36  19  51 W18       30.48S WCI  25
ASPEN          CLOUDY    53  26  35 NW18G28   30.19R
STEAMBOAT      FAIR      46  35  66 E7        30.17R
LARAMIE        CLOUDY    34  33  96 NE10      30.25R WCI  26
CASPER         CLOUDY    32  28  85 NE16      30.37R WCI  21
$$

...OBSERVATIONS ACROSS THE NORTHERN PLAINS...

CITY           SKY/WX    TMP DP  RH WIND       PRES   REMARKS
BISMARCK       CLOUDY    47  40  76 N22G29    30.26R
FARGO          FAIR      53  38  56 N9        30.18R
PIERRE         CLOUDY    59  40  49 SE14      30.04S
SIOUX FALLS    PTCLDY    52  40  63 E8        30.14S
$$

...OBSERVATIONS ACROSS THE CENTRAL AND SOUTHERN PLAINS...

CITY           SKY/WX    TMP DP  RH WIND       PRES   REMARKS
OMAHA          CLEAR     56  31  38 CALM      30.08R
GRAND ISLAND   CLOUDY    57  41  55 SE6       30.10R
KANSAS CITY    CLEAR     59  31  34 NE5       30.05S
WICHITA        PTCLDY    57  45  64 NW5       30.06R
DODGE CITY     CLOUDY    54  41  61 E8        30.07S
OKLAHOMA CITY  CLEAR     62  46  55 N6        30.06S
DALLAS         CLEAR     68  51  54 NW7       30.02R
AMARILLO       CLEAR     58  42  55 SE15      30.06R
$$




USA.gov is the U.S. government's official web portal to all federal, state and local government web resources and services.